Weather in Marinka

Ukraine / Donetsk Region     47°56′29″N   37°30′14″E
temp.,
°C
wind,
m/s
gust,
m/s
humid.,
%
clouds,
%
prec.,
mm/h
press.,
hPa
HPBL,
m
25 february, thu
thu2523:00−8s463298 0.0 1038343
02:00−8ssw353998 0.0 1037298
05:00−8ssw363999 0.0 1035263
08:00−7ssw464299 0.0 1034292
11:00−4sw5962100 0.0 1033449
14:00−1wsw5963100 0.0 1031505
17:00−2wsw5974100 0.0 1029362
20:00−1wsw51085100 0.1 1029306
26 february, fri
fri2623:00−1wsw51094100 0.2 1027280
02:000wsw51198100 0.3 1026279
05:00+1w4998100 0.1 1025279
08:00+1w4899100 0.1 1025221
11:00+3w4798100 0.0 1024224
14:00+6w588997 0.0 1023465
17:00+4wsw5109586 0.0 1020320
20:00+2wsw6119793 0.0 1020442
27 february, sat
sat2723:00+3w51098100 0.0 1018391
02:00+3w4998100 0.0 1016266
05:00+3w41098100 0.0 1014286
08:00+3w41098100 0.3 1014391
11:00+3w5997100 1.1 1013485
14:00+6wnw6973100 1.2 10121150
17:00+3wnw4108198 0.1 1011649
20:00+1wnw4119360 0.1 1012443
28 february, sun
sun2823:00+1wnw499889 0.1 1012558
02:00+1wnw589793 0.2 1013524
05:00+1nw489696 0.1 1013488
08:00+1nw588698 0.3 1015653
11:00+2nnw687399 0.1 1016952
14:00+2nnw786394 0.2 10181068
17:00−1nnw587092 0.0 1019927
20:00−1nnw576995 0.0 1022891
1 march, mon
mon123:00−1nnw4671100 0.0 1023870
02:00−2nnw4572100 0.1 1024766
05:00−2n4575100 0.0 1025651
08:00−2n4570100 0.0 1027770
11:00−1n4562100 0.0 1028839
14:000n455995 0.0 1029900
17:00−1n356789 0.0 1030443
20:00−2n367566 0.0 1032372